Wendover, UT

12:51 PM MDT on August 18, 2017 (GMT -0600)
Wendover

Weather History for KENV - October, 2011

Change the Weather History Date:

Sunday, October 2, 2011

  Actual Average Record
Temperature  
Mean Temperature 73 °F -  
Max Temperature 84 °F 71 °F 85 °F (1943)
Min Temperature 62 °F 49 °F 33 °F (1950)
Cooling Degree Days 8    
Growing Degree Days 23 (Base 50)    
Moisture  
Dew Point 38 °F    
Average Humidity 31    
Maximum Humidity 42    
Minimum Humidity 19    
Precipitation  
Precipitation 0.00 in - - ()
Sea Level Pressure  
Sea Level Pressure 30.03 in    
Wind  
Wind Speed 8 mph (ENE)    
Max Wind Speed 21 mph    
Max Gust Speed 20 mph    
Visibility 10 miles    
Events      
Averages and records for this station are not official NWS values.
T = Trace of Precipitation, MM = Missing Value Source: NWS Daily Summary

Daily Weather History Graph

Daily Weather History Graph

Search for Another Location

Airport or City:

Trip Planner

Search our weather history database for the weather conditions in past years. The results will help you decide how hot, cold, wet, or windy it might be!

Date:

Astronomy

Oct. 02, 2011 Rise Set
Actual Time 7:33 AM MDT 7:16 PM MDT
Civil Twilight 7:06 AM MDT 7:44 PM MDT
Nautical Twilight 6:34 AM MDT 8:15 PM MDT
Astronomical Twilight 6:02 AM MDT 8:47 PM MDT
Moon 1:45 PM MDT (10/2) 11:17 PM MDT (10/2)
Length of Visible Light 12h 37m
Length of Day
11h 43m
Waxing Crescent, 35% of the Moon is Illuminated
Oct 2
Waxing Crescent
Oct 3
First Quarter
Oct 11
Full
Oct 19
Last Quarter
Oct 26
New

Hourly Weather History & Observations

Time (MDT) Temp. Dew Point Humidity Pressure Visibility Wind Dir Wind Speed Gust Speed Precip Events Conditions
12:15 AM 71.6 °F 37.4 °F 29% 30.02 in 10.0 mi SSE 6.9 mph - N/A   Partly Cloudy
12:35 AM 69.8 °F 37.4 °F 31% 30.02 in 10.0 mi WNW 4.6 mph - N/A   Scattered Clouds
12:55 AM 69.8 °F 37.4 °F 31% 30.02 in 10.0 mi Calm Calm - N/A   Partly Cloudy
1:15 AM 68.0 °F 37.4 °F 33% 30.02 in 10.0 mi NNE 9.2 mph - N/A   Scattered Clouds
1:35 AM 66.2 °F 39.2 °F 37% 30.02 in 10.0 mi ENE 5.8 mph - N/A   Overcast
1:55 AM 66.2 °F 39.2 °F 37% 30.02 in 10.0 mi NE 8.1 mph - N/A   Mostly Cloudy
2:15 AM 66.2 °F 37.4 °F 35% 30.02 in 10.0 mi NE 10.4 mph - N/A   Partly Cloudy
2:35 AM 66.2 °F 37.4 °F 35% 30.03 in 10.0 mi NNE 5.8 mph - N/A   Clear
2:55 AM 69.8 °F 37.4 °F 31% 30.03 in 10.0 mi East 4.6 mph - N/A   Clear
3:35 AM 69.8 °F 37.4 °F 31% 30.03 in 10.0 mi SE 6.9 mph - N/A   Clear
3:55 AM 66.2 °F 37.4 °F 35% 30.03 in 10.0 mi East 5.8 mph - N/A   Mostly Cloudy
4:15 AM 66.2 °F 37.4 °F 35% 30.03 in 10.0 mi East 6.9 mph - N/A   Mostly Cloudy
4:35 AM 66.2 °F 37.4 °F 35% 30.03 in 10.0 mi NE 10.4 mph - N/A   Partly Cloudy
4:55 AM 64.4 °F 37.4 °F 37% 30.04 in 10.0 mi NNE 9.2 mph - N/A   Clear
5:15 AM 64.4 °F 37.4 °F 37% 30.04 in 10.0 mi NNE 10.4 mph - N/A   Clear
5:35 AM 62.6 °F 37.4 °F 39% 30.04 in 10.0 mi NE 11.5 mph - N/A   Clear
5:55 AM 64.4 °F 37.4 °F 37% 30.04 in 10.0 mi NE 10.4 mph - N/A   Clear
6:15 AM 64.4 °F 37.4 °F 37% 30.04 in 10.0 mi NE 10.4 mph - N/A   Clear
6:35 AM 62.6 °F 37.4 °F 39% 30.04 in 10.0 mi NE 11.5 mph - N/A   Clear
6:55 AM 64.4 °F 37.4 °F 37% 30.05 in 10.0 mi ENE 11.5 mph - N/A   Clear
7:15 AM 62.6 °F 37.4 °F 39% 30.05 in 10.0 mi NE 10.4 mph - N/A   Clear
7:35 AM 62.6 °F 37.4 °F 39% 30.07 in 10.0 mi NE 9.2 mph - N/A   Clear
7:55 AM 62.6 °F 37.4 °F 39% 30.07 in 10.0 mi NE 9.2 mph - N/A   Clear
8:15 AM 64.4 °F 39.2 °F 40% 30.07 in 10.0 mi ENE 9.2 mph - N/A   Clear
8:35 AM 64.4 °F 39.2 °F 40% 30.08 in 10.0 mi NE 8.1 mph - N/A   Clear
8:55 AM 64.4 °F 39.2 °F 40% 30.08 in 10.0 mi NE 8.1 mph - N/A   Clear
9:15 AM 66.2 °F 39.2 °F 37% 30.09 in 10.0 mi ENE 9.2 mph - N/A   Clear
9:35 AM 68.0 °F 39.2 °F 35% 30.10 in 10.0 mi ENE 6.9 mph - N/A   Clear
9:55 AM 68.0 °F 39.2 °F 35% 30.10 in 10.0 mi Calm Calm - N/A   Clear
10:15 AM 69.8 °F 39.2 °F 33% 30.10 in 10.0 mi East 3.5 mph - N/A   Clear
10:35 AM 71.6 °F 39.2 °F 31% 30.11 in 10.0 mi ENE 5.8 mph - N/A   Clear
10:55 AM 71.6 °F 39.2 °F 31% 30.11 in 10.0 mi ENE 8.1 mph - N/A   Clear
11:15 AM 71.6 °F 39.2 °F 31% 30.11 in 10.0 mi ENE 8.1 mph - N/A   Scattered Clouds
11:55 AM 73.4 °F 39.2 °F 29% 30.10 in 10.0 mi NE 10.4 mph - N/A   Mostly Cloudy
12:15 PM 75.2 °F 39.2 °F 27% 30.10 in 10.0 mi NE 9.2 mph - N/A   Clear
12:55 PM 77.0 °F 39.2 °F 26% 30.08 in 10.0 mi NE 9.2 mph - N/A   Clear
1:15 PM 78.8 °F 39.2 °F 24% 30.07 in 10.0 mi NE 8.1 mph - N/A   Clear
1:55 PM 78.8 °F 37.4 °F 23% 30.05 in 10.0 mi ENE 5.8 mph - N/A   Partly Cloudy
2:15 PM 80.6 °F 37.4 °F 21% 30.04 in 10.0 mi East 6.9 mph - N/A   Partly Cloudy
2:35 PM 80.6 °F 35.6 °F 20% 30.02 in 10.0 mi East 10.4 mph - N/A   Partly Cloudy
2:55 PM 82.4 °F 37.4 °F 20% 30.02 in 10.0 mi ESE 6.9 mph - N/A   Mostly Cloudy
3:35 PM 84.2 °F 37.4 °F 19% 30.01 in 10.0 mi SSW 11.5 mph 19.6 mph N/A   Partly Cloudy
4:35 PM 84.2 °F 37.4 °F 19% 30.00 in 10.0 mi SSE 19.6 mph - N/A   Mostly Cloudy
4:55 PM 82.4 °F 35.6 °F 19% 29.99 in 10.0 mi SE 17.3 mph - N/A   Partly Cloudy
5:15 PM 80.6 °F 37.4 °F 21% 29.99 in 10.0 mi SE 20.7 mph - N/A   Clear
5:55 PM 80.6 °F 35.6 °F 20% 29.98 in 10.0 mi SE 17.3 mph - N/A   Clear
6:15 PM 80.6 °F 37.4 °F 21% 29.98 in 10.0 mi SE 12.7 mph - N/A   Clear
6:35 PM 78.8 °F 37.4 °F 23% 29.97 in 10.0 mi ESE 15.0 mph - N/A   Partly Cloudy
6:55 PM 78.8 °F 39.2 °F 24% 29.97 in 10.0 mi SE 13.8 mph - N/A   Partly Cloudy
7:15 PM 77.0 °F 39.2 °F 26% 29.97 in 10.0 mi SE 11.5 mph - N/A   Partly Cloudy
7:35 PM 75.2 °F 35.6 °F 24% 29.98 in 10.0 mi SE 9.2 mph - N/A   Clear
7:55 PM 73.4 °F 33.8 °F 23% 29.98 in 10.0 mi South 9.2 mph - N/A   Clear
8:15 PM 73.4 °F 35.6 °F 25% 29.98 in 10.0 mi South 6.9 mph - N/A   Clear
8:35 PM 73.4 °F 35.6 °F 25% 29.99 in 10.0 mi Calm Calm - N/A   Clear
8:55 PM 69.8 °F 37.4 °F 31% 29.99 in 10.0 mi NE 4.6 mph - N/A   Partly Cloudy
9:15 PM 66.2 °F 37.4 °F 35% 29.99 in 10.0 mi NE 5.8 mph - N/A   Clear
9:35 PM 66.2 °F 37.4 °F 35% 30.00 in 10.0 mi ENE 3.5 mph - N/A   Clear
9:55 PM 66.2 °F 37.4 °F 35% 30.00 in 10.0 mi Calm Calm - N/A   Clear
10:15 PM 64.4 °F 37.4 °F 37% 30.00 in 10.0 mi NNE 3.5 mph - N/A   Clear
10:35 PM 66.2 °F 35.6 °F 32% 30.00 in 10.0 mi North 4.6 mph - N/A   Scattered Clouds
10:55 PM 66.2 °F 37.4 °F 35% 30.01 in 10.0 mi NNE 3.5 mph - N/A   Mostly Cloudy
11:15 PM 64.4 °F 37.4 °F 37% 30.01 in 10.0 mi Calm Calm - N/A   Scattered Clouds
11:35 PM 62.6 °F 39.2 °F 42% 30.02 in 10.0 mi ESE 5.8 mph - N/A   Clear
11:55 PM 62.6 °F 39.2 °F 42% 30.02 in 10.0 mi Calm Calm - N/A   Clear